• In Netherlands
  • List of Countries
  • For 7 days
  • Water Temperature
  • Satellite Maps
  • Weather Map
  • Weather Widgets
  • user-avatar
    Login

    Hourly Weather Yerevan

    Today, 26 May, Friday

    Time Temperature Precipitation Wind Pressure Humidity
    00:00 +14°C° 0 mm 2 mps 690 mmHg 65%
    01:00 +14°C° 0 mm 2 mps 689 mmHg 66%
    02:00 +13°C° 0 mm 1 mps 689 mmHg 68%
    03:00 +13°C° 0 mm 2 mps 689 mmHg 67%
    04:00 +14°C° 0 mm 2 mps 689 mmHg 65%
    05:00 +15°C° 0 mm 1 mps 689 mmHg 63%
    06:00 +16°C° 0 mm 1 mps 690 mmHg 60%
    07:00 +19°C° 0 mm 1 mps 690 mmHg 52%
    08:00 +22°C° 0 mm 1 mps 690 mmHg 44%
    09:00 +24°C° 0 mm 1 mps 690 mmHg 35%
    10:00 +25°C° 0 mm 2 mps 690 mmHg 32%
    11:00 +26°C° 0 mm 2 mps 690 mmHg 29%
    12:00 +27°C° 0 mm 2 mps 690 mmHg 27%
    13:00 +27°C° 0 mm 3 mps 689 mmHg 27%
    14:00 +28°C° 0 mm 3 mps 689 mmHg 27%
    15:00 +28°C° 0 mm 3 mps 689 mmHg 27%
    16:00 +27°C° 0.1 mm 3 mps 688 mmHg 31%
    17:00 +25°C° 0.1 mm 2 mps 688 mmHg 36%
    18:00 +24°C° 0.1 mm 2 mps 688 mmHg 41%
    19:00 +21°C° 0.2 mm 2 mps 688 mmHg 46%
    20:00 +20°C° 0.2 mm 1 mps 688 mmHg 52%
    21:00 +18°C° 0.2 mm 1 mps 687 mmHg 57%
    22:00 +16°C° 0.2 mm 1 mps 687 mmHg 59%
    23:00 +16°C° 0.2 mm 1 mps 687 mmHg 61%

    Tomorrow, 27 May, Saturday

    Time Temperature Precipitation Wind Pressure Humidity
    00:00 +15°C° 0.2 mm 1 mps 688 mmHg 63%
    01:00 +15°C° 0.1 mm 1 mps 687 mmHg 63%
    02:00 +14°C° 0.1 mm 1 mps 687 mmHg 64%
    03:00 +14°C° 0.1 mm 1 mps 687 mmHg 65%
    04:00 +15°C° 0.1 mm 1 mps 687 mmHg 62%
    05:00 +16°C° 0.1 mm 1 mps 688 mmHg 60%
    06:00 +19°C° 0.1 mm 1 mps 688 mmHg 58%
    07:00 +20°C° 0.1 mm 1 mps 688 mmHg 55%
    08:00 +20°C° 0.1 mm 2 mps 688 mmHg 52%
    09:00 +21°C° 0.1 mm 2 mps 687 mmHg 48%
    10:00 +24°C° 0.2 mm 3 mps 687 mmHg 43%
    11:00 +26°C° 0.2 mm 3 mps 687 mmHg 38%
    12:00 +28°C° 0.2 mm 3 mps 687 mmHg 32%
    13:00 +28°C° 0.3 mm 3 mps 687 mmHg 32%
    14:00 +28°C° 0.3 mm 3 mps 686 mmHg 33%
    15:00 +29°C° 0.3 mm 3 mps 686 mmHg 33%
    16:00 +28°C° 0.2 mm 2 mps 686 mmHg 36%
    17:00 +27°C° 0.2 mm 2 mps 686 mmHg 39%
    18:00 +26°C° 0.2 mm 2 mps 685 mmHg 42%
    19:00 +24°C° 0.1 mm 2 mps 686 mmHg 48%
    20:00 +21°C° 0.1 mm 1 mps 686 mmHg 54%
    21:00 +18°C° 0.1 mm 1 mps 686 mmHg 60%
    22:00 +18°C° 0 mm 1 mps 686 mmHg 62%
    23:00 +16°C° 0 mm 1 mps 686 mmHg 64%

    Day after tomorrow, 28 May, Sunday

    Time Temperature Precipitation Wind Pressure Humidity
    00:00 +16°C° 0 mm 1 mps 686 mmHg 66%
    01:00 +15°C° 0 mm 1 mps 686 mmHg 66%
    02:00 +15°C° 0 mm 1 mps 686 mmHg 66%
    03:00 +14°C° 0 mm 1 mps 686 mmHg 67%
    04:00 +16°C° 0 mm 1 mps 687 mmHg 64%
    05:00 +18°C° 0 mm 1 mps 687 mmHg 62%
    06:00 +19°C° 0 mm 1 mps 688 mmHg 60%
    07:00 +21°C° 0 mm 1 mps 688 mmHg 51%
    08:00 +23°C° 0 mm 2 mps 688 mmHg 42%
    09:00 +25°C° 0 mm 2 mps 689 mmHg 33%
    10:00 +26°C° 0 mm 2 mps 688 mmHg 30%
    11:00 +28°C° 0 mm 3 mps 688 mmHg 27%
    12:00 +29°C° 0 mm 3 mps 688 mmHg 24%
    13:00 +29°C° 0 mm 4 mps 688 mmHg 23%
    14:00 +29°C° 0 mm 4 mps 688 mmHg 23%
    15:00 +29°C° 0 mm 5 mps 688 mmHg 23%
    16:00 +28°C° 0 mm 5 mps 688 mmHg 26%
    17:00 +27°C° 0 mm 5 mps 688 mmHg 29%
    18:00 +26°C° 0 mm 4 mps 688 mmHg 33%
    19:00 +22°C° 0 mm 3 mps 688 mmHg 40%
    20:00 +20°C° 0 mm 3 mps 688 mmHg 48%
    21:00 +17°C° 0 mm 2 mps 689 mmHg 55%
    22:00 +16°C° 0 mm 2 mps 689 mmHg 57%
    23:00 +16°C° 0 mm 1 mps 689 mmHg 58%

    29 May, Monday

    Time Temperature Precipitation Wind Pressure Humidity
    00:00 +15°C° 0 mm 1 mps 689 mmHg 60%
    01:00 +15°C° 0 mm 1 mps 689 mmHg 61%
    02:00 +14°C° 0 mm 1 mps 689 mmHg 63%
    03:00 +14°C° 0 mm 1 mps 689 mmHg 64%
    04:00 +15°C° 0 mm 1 mps 690 mmHg 62%
    05:00 +16°C° 0 mm 1 mps 690 mmHg 59%
    06:00 +18°C° 0 mm 1 mps 691 mmHg 56%
    07:00 +21°C° 0 mm 1 mps 691 mmHg 50%
    08:00 +23°C° 0 mm 1 mps 691 mmHg 43%
    09:00 +25°C° 0 mm 1 mps 692 mmHg 36%
    10:00 +26°C° 0 mm 1 mps 692 mmHg 33%
    11:00 +27°C° 0 mm 2 mps 692 mmHg 30%
    12:00 +29°C° 0 mm 2 mps 691 mmHg 27%
    13:00 +29°C° 0.1 mm 2 mps 691 mmHg 27%
    14:00 +29°C° 0.1 mm 2 mps 691 mmHg 27%
    15:00 +29°C° 0.1 mm 2 mps 691 mmHg 27%
    16:00 +28°C° 0.2 mm 2 mps 691 mmHg 31%
    17:00 +27°C° 0.2 mm 2 mps 691 mmHg 34%
    18:00 +27°C° 0.2 mm 2 mps 691 mmHg 38%
    19:00 +24°C° 0.2 mm 2 mps 691 mmHg 45%
    20:00 +21°C° 0.2 mm 2 mps 691 mmHg 52%
    21:00 +19°C° 0.2 mm 2 mps 691 mmHg 59%
    22:00 +18°C° 0.1 mm 2 mps 691 mmHg 61%
    23:00 +18°C° 0.1 mm 2 mps 691 mmHg 64%

    30 May, Tuesday

    Time Temperature Precipitation Wind Pressure Humidity
    00:00 +17°C° 0.1 mm 2 mps 691 mmHg 67%
    01:00 +17°C° 0 mm 2 mps 691 mmHg 68%
    02:00 +17°C° 0 mm 2 mps 691 mmHg 70%
    03:00 +16°C° 0 mm 2 mps 691 mmHg 71%
    04:00 +17°C° 0 mm 2 mps 691 mmHg 70%
    05:00 +19°C° 0 mm 1 mps 691 mmHg 68%
    06:00 +19°C° 0 mm 1 mps 691 mmHg 66%
    07:00 +22°C° 0 mm 1 mps 691 mmHg 57%
    08:00 +24°C° 0 mm 1 mps 691 mmHg 47%
    09:00 +26°C° 0 mm 1 mps 691 mmHg 38%
    10:00 +28°C° 0 mm 2 mps 691 mmHg 34%
    11:00 +29°C° 0 mm 2 mps 691 mmHg 30%
    12:00 +30°C° 0 mm 2 mps 691 mmHg 26%
    13:00 +30°C° 0 mm 3 mps 690 mmHg 25%
    14:00 +31°C° 0 mm 3 mps 690 mmHg 25%
    15:00 +31°C° 0 mm 3 mps 690 mmHg 24%
    16:00 +30°C° 0 mm 3 mps 690 mmHg 26%
    17:00 +29°C° 0 mm 2 mps 690 mmHg 29%
    18:00 +28°C° 0 mm 2 mps 689 mmHg 31%
    19:00 +25°C° 0 mm 2 mps 690 mmHg 35%
    20:00 +21°C° 0 mm 2 mps 690 mmHg 40%
    21:00 +19°C° 0 mm 2 mps 690 mmHg 44%
    22:00 +18°C° 0 mm 2 mps 689 mmHg 45%
    23:00 +18°C° 0 mm 1 mps 689 mmHg 47%

    31 May, Wednesday

    Time Temperature Precipitation Wind Pressure Humidity
    00:00 +16°C° 0 mm 1 mps 689 mmHg 48%
    01:00 +16°C° 0 mm 1 mps 689 mmHg 47%
    02:00 +16°C° 0 mm 1 mps 689 mmHg 46%
    03:00 +15°C° 0 mm 1 mps 688 mmHg 45%
    04:00 +16°C° 0 mm 1 mps 689 mmHg 45%
    05:00 +19°C° 0 mm 1 mps 689 mmHg 45%
    06:00 +20°C° 0 mm 1 mps 689 mmHg 45%
    07:00 +22°C° 0 mm 1 mps 689 mmHg 38%
    08:00 +25°C° 0 mm 1 mps 690 mmHg 32%
    09:00 +27°C° 0 mm 1 mps 690 mmHg 25%
    10:00 +28°C° 0 mm 1 mps 689 mmHg 24%
    11:00 +29°C° 0 mm 2 mps 689 mmHg 23%
    12:00 +31°C° 0 mm 2 mps 689 mmHg 23%
    13:00 +31°C° 0.1 mm 2 mps 689 mmHg 24%
    14:00 +31°C° 0.1 mm 2 mps 688 mmHg 25%
    15:00 +31°C° 0.1 mm 2 mps 688 mmHg 26%
    16:00 +30°C° 0.2 mm 2 mps 688 mmHg 29%
    17:00 +29°C° 0.2 mm 1 mps 687 mmHg 32%
    18:00 +28°C° 0.2 mm 1 mps 687 mmHg 35%
    19:00 +26°C° 0.2 mm 1 mps 687 mmHg 42%
    20:00 +23°C° 0.2 mm 1 mps 686 mmHg 49%
    21:00 +20°C° 0.2 mm 2 mps 686 mmHg 56%
    22:00 +20°C° 0.2 mm 1 mps 686 mmHg 58%
    23:00 +19°C° 0.2 mm 1 mps 686 mmHg 61%
    Show more